UAL1152 KSNA-KSFO

Flight info

Callsign UAL1152
Flight time 1h 15m
Altitude 38000
Route HHERO3 IKAYE RIZIN SPLNT STOKD SERFR SERFR4
Aircraft A20N/M-SDE2E3FGHIRWXY/LB1

Departure

Time 2026-05-06 01:51
Airport John Wayne Orange County International Airport (KSNA)

Arrival

Time 2026-05-06 03:06
Airport San Francisco International Airport (KSFO)
Time Latitude Longitude Altitude Speed Heading
2026-05-06 01:09 33.67832 -117.86304 55 ft 0 kts 117°
2026-05-06 01:33 33.67836 -117.86313 54 ft 2 kts 112°
2026-05-06 01:33 33.67842 -117.86332 49 ft 2 kts 106°
2026-05-06 01:34 33.67845 -117.86351 50 ft 2 kts 89°
2026-05-06 01:34 33.67842 -117.86370 49 ft 2 kts 56°
2026-05-06 01:34 33.67831 -117.86383 53 ft 2 kts 29°
2026-05-06 01:34 33.67827 -117.86386 48 ft 0 kts 27°
2026-05-06 01:42 33.67829 -117.86385 54 ft 1 kts 27°
2026-05-06 01:42 33.67847 -117.86374 52 ft 5 kts 26°
2026-05-06 01:42 33.67854 -117.86370 54 ft 1 kts 26°
2026-05-06 01:43 33.67857 -117.86368 54 ft 0 kts 26°
2026-05-06 01:43 33.67859 -117.86366 52 ft 0 kts 26°
2026-05-06 01:44 33.67860 -117.86366 52 ft 0 kts 26°
2026-05-06 01:44 33.67876 -117.86356 49 ft 6 kts 26°
2026-05-06 01:44 33.67942 -117.86314 52 ft 16 kts 30°
2026-05-06 01:44 33.68017 -117.86272 51 ft 12 kts
2026-05-06 01:45 33.68064 -117.86312 51 ft 0 kts 302°
2026-05-06 01:46 33.68064 -117.86313 51 ft 0 kts 302°
2026-05-06 01:46 33.68065 -117.86314 51 ft 1 kts 302°
2026-05-06 01:46 33.68084 -117.86355 47 ft 10 kts 298°
2026-05-06 01:47 33.68115 -117.86424 47 ft 0 kts 298°
2026-05-06 01:48 33.68121 -117.86437 48 ft 5 kts 298°
2026-05-06 01:49 33.68135 -117.86513 48 ft 12 kts 244°
2026-05-06 01:49 33.68100 -117.86548 49 ft 0 kts 210°
2026-05-06 01:50 33.68099 -117.86549 49 ft 1 kts 210°
2026-05-06 01:50 33.67915 -117.86668 53 ft 71 kts 208°
2026-05-06 01:50 33.67262 -117.87084 55 ft 139 kts 209°
2026-05-06 01:50 33.66364 -117.87642 643 ft 146 kts 207°
2026-05-06 01:51 33.65468 -117.88162 1419 ft 147 kts 209°
2026-05-06 01:51 33.64511 -117.88702 2019 ft 158 kts 204°
2026-05-06 01:51 33.63392 -117.89064 2545 ft 179 kts 192°
2026-05-06 01:51 33.62082 -117.89245 3060 ft 201 kts 189°
2026-05-06 01:52 33.60586 -117.89452 3566 ft 225 kts 188°
2026-05-06 01:52 33.58954 -117.89684 4155 ft 247 kts 188°
2026-05-06 01:52 33.57243 -117.90228 4776 ft 263 kts 208°
2026-05-06 01:52 33.55739 -117.91494 5646 ft 268 kts 225°
2026-05-06 01:53 33.54376 -117.93060 6550 ft 274 kts 225°
2026-05-06 01:53 33.52972 -117.94662 7301 ft 286 kts 226°
2026-05-06 01:53 33.51516 -117.96313 7401 ft 286 kts 225°
2026-05-06 01:53 33.50078 -117.97935 7512 ft 284 kts 225°
2026-05-06 01:54 33.48638 -117.99589 7613 ft 288 kts 229°
2026-05-06 01:54 33.47417 -118.01477 7717 ft 285 kts 240°
2026-05-06 01:54 33.46427 -118.03520 7820 ft 284 kts 242°
2026-05-06 01:54 33.45425 -118.05581 7921 ft 288 kts 242°
2026-05-06 01:55 33.44413 -118.07647 8017 ft 287 kts 242°
2026-05-06 01:55 33.43402 -118.09704 8113 ft 286 kts 242°
2026-05-06 01:55 33.42382 -118.11772 8219 ft 291 kts 242°
2026-05-06 01:55 33.41488 -118.13930 8326 ft 287 kts 256°
2026-05-06 01:56 33.41306 -118.16260 8437 ft 282 kts 279°
2026-05-06 01:56 33.41715 -118.18552 8541 ft 281 kts 285°
2026-05-06 01:56 33.42166 -118.20826 8644 ft 281 kts 285°
2026-05-06 01:56 33.42612 -118.23108 8747 ft 282 kts 286°
2026-05-06 01:57 33.43050 -118.25392 8864 ft 282 kts 286°
2026-05-06 01:57 33.43497 -118.27680 8961 ft 283 kts 286°
2026-05-06 01:57 33.44023 -118.29942 9065 ft 282 kts 294°
2026-05-06 01:57 33.44849 -118.32061 9172 ft 282 kts 300°
2026-05-06 01:58 33.45766 -118.34130 9273 ft 280 kts 301°
2026-05-06 01:58 33.46672 -118.36205 9374 ft 283 kts 300°
2026-05-06 01:58 33.47574 -118.38287 9479 ft 280 kts 301°
2026-05-06 01:58 33.48465 -118.40345 9584 ft 278 kts 301°
2026-05-06 01:59 33.49359 -118.42400 9689 ft 280 kts 300°
2026-05-06 01:59 33.50271 -118.44489 9798 ft 284 kts 301°
2026-05-06 01:59 33.51179 -118.46569 9904 ft 281 kts 301°
2026-05-06 01:59 33.52099 -118.48610 10001 ft 285 kts 303°
2026-05-06 02:00 33.53308 -118.50608 10111 ft 307 kts 310°
2026-05-06 02:00 33.54671 -118.52699 10218 ft 325 kts 310°
2026-05-06 02:00 33.56057 -118.54848 10304 ft 327 kts 309°
2026-05-06 02:00 33.57442 -118.57012 10398 ft 328 kts 309°
2026-05-06 02:01 33.58832 -118.59185 10495 ft 328 kts 309°
2026-05-06 02:01 33.60235 -118.61374 10590 ft 333 kts 309°
2026-05-06 02:01 33.61613 -118.63533 11017 ft 318 kts 309°
2026-05-06 02:01 33.62926 -118.65591 12020 ft 303 kts 310°
2026-05-06 02:02 33.64173 -118.67548 13385 ft 289 kts 310°
2026-05-06 02:02 33.65371 -118.69397 14649 ft 272 kts 313°
2026-05-06 02:02 33.66668 -118.70952 15749 ft 260 kts 322°
2026-05-06 02:02 33.68117 -118.72220 16547 ft 258 kts 331°
2026-05-06 02:03 33.69716 -118.73243 17076 ft 267 kts 336°
2026-05-06 02:03 33.71399 -118.74259 17639 ft 273 kts 335°
2026-05-06 02:03 33.73082 -118.75296 18435 ft 271 kts 335°
2026-05-06 02:03 33.74764 -118.76341 19044 ft 274 kts 334°
2026-05-06 02:04 33.76470 -118.77403 19595 ft 277 kts 334°
2026-05-06 02:04 33.78173 -118.78467 20289 ft 275 kts 335°
2026-05-06 02:04 33.79892 -118.79537 20782 ft 282 kts 335°
2026-05-06 02:04 33.81638 -118.80621 21336 ft 284 kts 335°
2026-05-06 02:05 33.83397 -118.81714 21936 ft 286 kts 335°
2026-05-06 02:05 33.85177 -118.82820 22421 ft 291 kts 335°
2026-05-06 02:05 33.86978 -118.83940 22993 ft 292 kts 335°
2026-05-06 02:05 33.88793 -118.85070 23517 ft 297 kts 335°
2026-05-06 02:06 33.90657 -118.86231 23793 ft 305 kts 335°
2026-05-06 02:06 33.92545 -118.87409 24287 ft 306 kts 335°
2026-05-06 02:06 33.94441 -118.88594 24725 ft 309 kts 335°
2026-05-06 02:06 33.96356 -118.89790 25150 ft 311 kts 335°
2026-05-06 02:07 33.98282 -118.90994 25571 ft 314 kts 336°
2026-05-06 02:07 34.00230 -118.92211 25991 ft 317 kts 336°
2026-05-06 02:07 34.02192 -118.93438 26404 ft 319 kts 336°
2026-05-06 02:07 34.04169 -118.94675 26803 ft 322 kts 336°
2026-05-06 02:08 34.06166 -118.95924 27177 ft 324 kts 336°
2026-05-06 02:08 34.08154 -118.97165 27726 ft 322 kts 336°
2026-05-06 02:08 34.10166 -118.98437 27897 ft 331 kts 338°
2026-05-06 02:08 34.12197 -118.99784 28261 ft 336 kts 333°
2026-05-06 02:09 34.14068 -119.01538 28658 ft 345 kts 322°
2026-05-06 02:09 34.15682 -119.03737 29011 ft 356 kts 311°
2026-05-06 02:09 34.17026 -119.06285 29292 ft 363 kts 308°
2026-05-06 02:09 34.18354 -119.08888 29627 ft 365 kts 308°
2026-05-06 02:10 34.19698 -119.11502 29929 ft 368 kts 308°
2026-05-06 02:10 34.21059 -119.14143 30239 ft 371 kts 308°
2026-05-06 02:10 34.22423 -119.16790 30588 ft 371 kts 308°
2026-05-06 02:10 34.23784 -119.19435 30930 ft 371 kts 308°
2026-05-06 02:11 34.24687 -119.21189 31122 ft 372 kts 308°
2026-05-06 02:11 34.26536 -119.24788 31317 ft 380 kts 309°
2026-05-06 02:11 34.27457 -119.26583 31579 ft 377 kts 310°
2026-05-06 02:11 34.29295 -119.30173 32141 ft 375 kts 309°
2026-05-06 02:12 34.30208 -119.31950 32309 ft 376 kts 309°
2026-05-06 02:12 34.31592 -119.34646 32606 ft 378 kts 309°
2026-05-06 02:12 34.32972 -119.37333 32926 ft 377 kts 309°
2026-05-06 02:12 34.34358 -119.40039 33143 ft 380 kts 309°
2026-05-06 02:13 34.35769 -119.42798 33417 ft 380 kts 309°
2026-05-06 02:13 34.37159 -119.45521 33692 ft 381 kts 309°
2026-05-06 02:13 34.38533 -119.48214 33954 ft 380 kts 308°
2026-05-06 02:13 34.39943 -119.50971 34184 ft 381 kts 309°
2026-05-06 02:14 34.43720 -119.56457 34484 ft 376 kts 322°
2026-05-06 02:14 34.45566 -119.58704 34673 ft 378 kts 321°
2026-05-06 02:14 34.47423 -119.60977 34864 ft 379 kts 321°
2026-05-06 02:15 34.49276 -119.63257 35062 ft 381 kts 320°
2026-05-06 02:15 34.51143 -119.65555 35208 ft 383 kts 320°
2026-05-06 02:15 34.53017 -119.67859 35359 ft 385 kts 320°
2026-05-06 02:15 34.54896 -119.70181 35531 ft 387 kts 320°
2026-05-06 02:16 34.56783 -119.72519 35703 ft 388 kts 320°
2026-05-06 02:16 34.58680 -119.74863 35864 ft 390 kts 320°
2026-05-06 02:16 34.60584 -119.77218 36026 ft 392 kts 319°
2026-05-06 02:16 34.62496 -119.79579 36230 ft 393 kts 319°
2026-05-06 02:17 34.64416 -119.81952 36338 ft 395 kts 319°
2026-05-06 02:17 34.66337 -119.84332 36507 ft 395 kts 319°
2026-05-06 02:17 34.68263 -119.86717 36682 ft 396 kts 319°
2026-05-06 02:17 34.70223 -119.89141 36836 ft 397 kts 319°
2026-05-06 02:18 34.72136 -119.91509 36969 ft 399 kts 318°
2026-05-06 02:18 34.74082 -119.93925 37102 ft 401 kts 319°
2026-05-06 02:18 34.76038 -119.96356 37217 ft 403 kts 319°
2026-05-06 02:18 34.78002 -119.98796 37382 ft 404 kts 319°
2026-05-06 02:19 34.79973 -120.01246 37559 ft 405 kts 319°
2026-05-06 02:19 34.81948 -120.03704 37649 ft 408 kts 319°
2026-05-06 02:19 34.83933 -120.06175 37799 ft 408 kts 319°
2026-05-06 02:19 34.85921 -120.08653 37962 ft 409 kts 319°
2026-05-06 02:20 34.91937 -120.16166 38055 ft 419 kts 319°
2026-05-06 02:21 34.95374 -120.20463 38059 ft 426 kts 319°
2026-05-06 02:21 34.99546 -120.25687 38062 ft 434 kts 319°
2026-05-06 02:22 35.03761 -120.30977 38062 ft 434 kts 318°
2026-05-06 02:22 35.07962 -120.36260 38061 ft 435 kts 319°
2026-05-06 02:23 35.12301 -120.41399 38057 ft 431 kts 322°
2026-05-06 02:23 35.16753 -120.46270 38063 ft 430 kts 322°
2026-05-06 02:24 35.21186 -120.51190 38057 ft 430 kts 322°
2026-05-06 02:24 35.25607 -120.56143 38063 ft 434 kts 322°
2026-05-06 02:25 35.30058 -120.61153 38064 ft 434 kts 322°
2026-05-06 02:25 35.34488 -120.66150 38052 ft 432 kts 322°
2026-05-06 02:26 35.38908 -120.71137 38062 ft 434 kts 322°
2026-05-06 02:26 35.43370 -120.76185 38062 ft 437 kts 322°
2026-05-06 02:27 35.47837 -120.81218 38067 ft 436 kts 324°
2026-05-06 02:27 35.52598 -120.85741 38069 ft 432 kts 328°
2026-05-06 02:28 35.57390 -120.90189 38047 ft 432 kts 328°
2026-05-06 02:28 35.62210 -120.94673 38067 ft 436 kts 328°
2026-05-06 02:29 35.67022 -120.99155 38070 ft 432 kts 328°
2026-05-06 02:29 35.71821 -121.03627 38067 ft 433 kts 328°
2026-05-06 02:30 35.76592 -121.08080 38066 ft 434 kts 328°
2026-05-06 02:30 35.81399 -121.12572 38073 ft 434 kts 328°
2026-05-06 02:31 35.86207 -121.17074 37879 ft 434 kts 328°
2026-05-06 02:31 35.88609 -121.19326 37608 ft 434 kts 329°
2026-05-06 02:31 35.91009 -121.21579 37330 ft 433 kts 329°
2026-05-06 02:31 35.93400 -121.23830 37064 ft 433 kts 329°
2026-05-06 02:32 35.95797 -121.26092 36796 ft 434 kts 329°
2026-05-06 02:32 35.98195 -121.28356 36533 ft 434 kts 329°
2026-05-06 02:32 36.00598 -121.30615 36136 ft 436 kts 330°
2026-05-06 02:32 36.03023 -121.32890 35430 ft 439 kts 330°
2026-05-06 02:33 36.05472 -121.35187 34640 ft 443 kts 330°
2026-05-06 02:33 36.07109 -121.36668 34263 ft 438 kts 334°
2026-05-06 02:34 36.15479 -121.43208 32183 ft 428 kts 335°
2026-05-06 02:34 36.18004 -121.45174 31408 ft 429 kts 335°
2026-05-06 02:34 36.20542 -121.47154 30593 ft 432 kts 335°
2026-05-06 02:34 36.23094 -121.49151 29706 ft 436 kts 335°
2026-05-06 02:35 36.25646 -121.51153 29036 ft 432 kts 334°
2026-05-06 02:35 36.28156 -121.53131 28665 ft 422 kts 334°
2026-05-06 02:35 36.30623 -121.55068 28187 ft 419 kts 334°
2026-05-06 02:35 36.33078 -121.56992 27609 ft 415 kts 334°
2026-05-06 02:36 36.35506 -121.58892 27060 ft 411 kts 334°
2026-05-06 02:36 36.37918 -121.60779 26498 ft 408 kts 334°
2026-05-06 02:36 36.40304 -121.62650 25948 ft 404 kts 334°
2026-05-06 02:36 36.42670 -121.64509 25387 ft 401 kts 334°
2026-05-06 02:37 36.45018 -121.66357 24833 ft 398 kts 334°
2026-05-06 02:37 36.47351 -121.68192 24250 ft 397 kts 333°
2026-05-06 02:37 36.49656 -121.70011 23953 ft 387 kts 333°
2026-05-06 02:37 36.51907 -121.71789 23574 ft 383 kts 333°
2026-05-06 02:38 36.54155 -121.73562 23017 ft 381 kts 333°
2026-05-06 02:38 36.56381 -121.75321 22483 ft 377 kts 333°
2026-05-06 02:38 36.58580 -121.77059 21975 ft 373 kts 333°
2026-05-06 02:38 36.60755 -121.78781 21459 ft 369 kts 333°
2026-05-06 02:39 36.62926 -121.80498 20828 ft 369 kts 332°
2026-05-06 02:39 36.65076 -121.82201 20360 ft 364 kts 332°
2026-05-06 02:39 36.67171 -121.83862 19863 ft 361 kts 332°
2026-05-06 02:39 36.69281 -121.85536 19361 ft 358 kts 332°
2026-05-06 02:40 36.71380 -121.87201 18841 ft 356 kts 332°
2026-05-06 02:40 36.73528 -121.88690 18336 ft 351 kts 339°
2026-05-06 02:40 36.75790 -121.89785 17811 ft 345 kts 346°
2026-05-06 02:40 36.78095 -121.90504 17307 ft 339 kts 351°
2026-05-06 02:41 36.80388 -121.91132 16818 ft 336 kts 350°
2026-05-06 02:41 36.82659 -121.91768 16343 ft 333 kts 350°
2026-05-06 02:41 36.84907 -121.92401 15857 ft 330 kts 350°
2026-05-06 02:41 36.87132 -121.93026 15397 ft 327 kts 350°
2026-05-06 02:42 36.89345 -121.93647 14933 ft 324 kts 350°
2026-05-06 02:42 36.91535 -121.94260 14472 ft 322 kts 350°
2026-05-06 02:42 36.93717 -121.94871 14011 ft 320 kts 350°
2026-05-06 02:42 36.95872 -121.95549 13527 ft 319 kts 345°
2026-05-06 02:43 36.97977 -121.96383 13076 ft 316 kts 345°
2026-05-06 02:43 37.00060 -121.97197 12623 ft 313 kts 345°
2026-05-06 02:43 37.02132 -121.98004 12179 ft 310 kts 345°
2026-05-06 02:43 37.04181 -121.98802 11736 ft 308 kts 345°
2026-05-06 02:44 37.06223 -121.99597 11293 ft 306 kts 345°
2026-05-06 02:44 37.08245 -122.00387 10859 ft 304 kts 345°
2026-05-06 02:44 37.10259 -122.01174 10421 ft 302 kts 345°
2026-05-06 02:44 37.12248 -122.01952 10170 ft 294 kts 345°
2026-05-06 02:45 37.14133 -122.02692 10013 ft 283 kts 345°
2026-05-06 02:45 37.15983 -122.03419 9799 ft 274 kts 345°
2026-05-06 02:45 37.17809 -122.04135 9598 ft 279 kts 345°
2026-05-06 02:45 37.19682 -122.04864 9220 ft 284 kts 345°
2026-05-06 02:46 37.21560 -122.05597 8833 ft 283 kts 345°
2026-05-06 02:46 37.23432 -122.06333 8457 ft 281 kts 345°
2026-05-06 02:46 37.25286 -122.07056 8207 ft 274 kts 345°
2026-05-06 02:46 37.27070 -122.07755 8111 ft 263 kts 345°
2026-05-06 02:47 37.28779 -122.08429 8007 ft 252 kts 344°
2026-05-06 02:47 37.30418 -122.09079 7900 ft 241 kts 345°
2026-05-06 02:47 37.31986 -122.09699 7793 ft 231 kts 345°
2026-05-06 02:47 37.33608 -122.10335 7711 ft 260 kts 344°
2026-05-06 02:48 37.35336 -122.11013 7618 ft 260 kts 344°
2026-05-06 02:48 37.37054 -122.11692 7519 ft 258 kts 344°
2026-05-06 02:48 37.38766 -122.12350 7423 ft 258 kts 346°
2026-05-06 02:48 37.40497 -122.12947 7331 ft 257 kts 347°
2026-05-06 02:49 37.42226 -122.13522 7231 ft 257 kts 347°
2026-05-06 02:49 37.43944 -122.14095 7131 ft 251 kts 346°
2026-05-06 02:49 37.45594 -122.14653 7029 ft 240 kts 346°
2026-05-06 02:49 37.47170 -122.15192 6934 ft 230 kts 346°
2026-05-06 02:50 37.48680 -122.15710 6829 ft 222 kts 346°
2026-05-06 02:50 37.50195 -122.16230 6739 ft 227 kts 346°
2026-05-06 02:50 37.51704 -122.16751 6644 ft 224 kts 346°
2026-05-06 02:50 37.53148 -122.17486 6538 ft 227 kts 324°
2026-05-06 02:51 37.54140 -122.19035 6451 ft 232 kts 301°
2026-05-06 02:51 37.54893 -122.20829 6349 ft 231 kts 300°
2026-05-06 02:51 37.55638 -122.22625 6252 ft 232 kts 300°
2026-05-06 02:51 37.56365 -122.24382 6138 ft 221 kts 300°
2026-05-06 02:52 37.57060 -122.26054 6032 ft 209 kts 301°
2026-05-06 02:52 37.57709 -122.27610 6003 ft 191 kts 300°
2026-05-06 02:52 37.58307 -122.29038 5867 ft 177 kts 301°
2026-05-06 02:52 37.58865 -122.30353 5738 ft 164 kts 300°
2026-05-06 02:53 37.59359 -122.31570 5621 ft 152 kts 300°
2026-05-06 02:53 37.59857 -122.32805 5479 ft 169 kts 300°
2026-05-06 02:53 37.60459 -122.34229 5631 ft 196 kts 300°
2026-05-06 02:53 37.61154 -122.35875 5862 ft 232 kts 300°
2026-05-06 02:54 37.61939 -122.37766 5976 ft 249 kts 300°
2026-05-06 02:54 37.62703 -122.39730 6002 ft 251 kts 290°
2026-05-06 02:54 37.62841 -122.41958 6009 ft 257 kts 264°
2026-05-06 02:54 37.62560 -122.44185 6004 ft 258 kts 263°
2026-05-06 02:55 37.62272 -122.46387 6006 ft 257 kts 263°
2026-05-06 02:55 37.61978 -122.48641 6005 ft 257 kts 263°
2026-05-06 02:55 37.61674 -122.50838 6021 ft 258 kts 257°
2026-05-06 02:55 37.60840 -122.52842 6026 ft 264 kts 228°
2026-05-06 02:56 37.59333 -122.54133 5990 ft 264 kts 199°
2026-05-06 02:56 37.57536 -122.54390 5784 ft 261 kts 170°
2026-05-06 02:56 37.55886 -122.53555 5483 ft 256 kts 140°
2026-05-06 02:56 37.54599 -122.52021 5152 ft 254 kts 133°
2026-05-06 02:57 37.53372 -122.50432 4912 ft 250 kts 133°
2026-05-06 02:57 37.52175 -122.48848 4545 ft 250 kts 133°
2026-05-06 02:57 37.50984 -122.47237 4183 ft 251 kts 133°
2026-05-06 02:57 37.49822 -122.45641 4088 ft 248 kts 133°
2026-05-06 02:58 37.48652 -122.44031 4028 ft 250 kts 133°
2026-05-06 02:58 37.47541 -122.42338 4019 ft 252 kts 119°
2026-05-06 02:58 37.46827 -122.40361 4022 ft 242 kts 113°
2026-05-06 02:58 37.46180 -122.38437 4023 ft 241 kts 112°
2026-05-06 02:59 37.45531 -122.36469 4006 ft 244 kts 112°
2026-05-06 02:59 37.44892 -122.34523 4008 ft 238 kts 112°
2026-05-06 02:59 37.44251 -122.32591 4004 ft 241 kts 113°
2026-05-06 02:59 37.43603 -122.30644 4006 ft 242 kts 112°
2026-05-06 03:00 37.42954 -122.28692 4003 ft 241 kts 112°
2026-05-06 03:00 37.42312 -122.26765 4003 ft 238 kts 112°
2026-05-06 03:00 37.41887 -122.24769 4008 ft 239 kts 89°
2026-05-06 03:00 37.42298 -122.22754 3994 ft 240 kts 57°
2026-05-06 03:01 37.43370 -122.21185 3863 ft 236 kts 43°
2026-05-06 03:01 37.44541 -122.19737 3579 ft 236 kts 43°
2026-05-06 03:01 37.45718 -122.18304 3261 ft 236 kts 37°
2026-05-06 03:01 37.47155 -122.17498 3127 ft 226 kts
2026-05-06 03:02 37.48705 -122.17802 3047 ft 227 kts 334°
2026-05-06 03:02 37.50138 -122.18602 3018 ft 225 kts 333°
2026-05-06 03:02 37.51563 -122.19418 3010 ft 224 kts 333°
2026-05-06 03:02 37.52946 -122.20207 2952 ft 214 kts 333°
2026-05-06 03:03 37.54305 -122.20979 2664 ft 214 kts 333°
2026-05-06 03:03 37.55492 -122.22034 2377 ft 208 kts 303°
2026-05-06 03:03 37.56180 -122.23640 2114 ft 210 kts 293°
2026-05-06 03:03 37.56795 -122.25305 1835 ft 208 kts 295°
2026-05-06 03:04 37.57442 -122.26919 1557 ft 201 kts 296°
2026-05-06 03:04 37.58070 -122.28413 1311 ft 184 kts 296°
2026-05-06 03:04 37.58634 -122.29763 1092 ft 166 kts 296°
2026-05-06 03:04 37.59150 -122.30993 865 ft 151 kts 296°
2026-05-06 03:05 37.59619 -122.32110 678 ft 138 kts 296°
2026-05-06 03:05 37.60050 -122.33144 517 ft 131 kts 295°
2026-05-06 03:05 37.60470 -122.34145 360 ft 130 kts 295°
2026-05-06 03:05 37.60880 -122.35152 197 ft 128 kts 295°
2026-05-06 03:06 37.61294 -122.36135 30 ft 126 kts 295°
2026-05-06 03:06 37.61629 -122.36936 21 ft 64 kts 297°
2026-05-06 03:06 37.61770 -122.37278 17 ft 35 kts 297°
2026-05-06 03:06 37.61904 -122.37593 17 ft 41 kts 298°
2026-05-06 03:07 37.62003 -122.37862 25 ft 24 kts 259°
2026-05-06 03:07 37.61915 -122.38031 20 ft 19 kts 263°
2026-05-06 03:07 37.61867 -122.38114 20 ft 9 kts 203°
2026-05-06 03:07 37.61852 -122.38122 20 ft 0 kts 203°